Flag for Canada Weather past 2 weeks in Steinbach, Manitoba, Canada

Now
63 °F

Mild.


Feels Like: 63 °F
Forecast: 53 / 81 °F
Wind: 5 mph from Southwest

Location: Winnipeg The Forks

Current Time: Sep 1, 2015 at 9:36:02 AM

Latest Report: Sep 1, 2015 at 9:00 AM


Visibility: N/A

Pressure: 29.81 "Hg

Humidity: 59%

Dew point: 48 °F

Location of SteinbachLocation

Historic Weather in Steinbach — Graph

°F

Steinbach temperature yesterday

Maximum temperature yesterday: 79 °F (at 6:00 PM)
Minimum temperature yesterday: 68 °F (at 9:00 AM)
Average temperature yesterday: 72 °F

Past Weeks' High & Low Weather Summary

 TemperatureHumidityPressure
High86 °F (Aug 30, 5:00 PM)96% (Aug 30, 7:00 AM)30.20 "Hg (Aug 30, 7:00 AM)
Low49 °F (Aug 26, 7:00 AM)29% (Aug 31, 6:00 PM)29.36 "Hg (Aug 22, 9:00 PM)
Average65 °F69%29.84 "Hg
* Reported Aug 17 6:00 AM — Sep 1 6:00 AM, Steinbach, Weather by CustomWeather, © 2015

Note: Actual official high and low records may vary slightly from our data, if they occured in-between our weather recording intervals... More about our weather records

Advertising

Steinbach weather history for previous 24 hours

 ConditionsComfort  
Time TempWeatherWind HumidityBarometerVisibility
6:00 AM
Tue, Sep 1
57 °FCool.5 mph68%29.80 "HgN/A
5:00 AM58 °FCool.5 mph67%29.78 "HgN/A
3:00 AM60 °FCool.6 mph61%29.78 "HgN/A
2:00 AM60 °FCool.5 mph62%29.78 "HgN/A
1:00 AM63 °FMild.3 mph56%29.78 "HgN/A
12:00 AM64 °FMild.5 mph55%29.77 "HgN/A
9:00 PM
Mon, Aug 31
71 °FMild.3 mph43%29.74 "HgN/A
6:00 PM79 °FPleasantly warm.8 mph29%29.71 "HgN/A
5:00 PM79 °FPleasantly warm.7 mph32%29.70 "HgN/A
4:00 PM78 °FWarm.10 mph42%29.69 "HgN/A
2:00 PM72 °FMild.3 mph68%29.70 "HgN/A
1:00 PM74 °FMild.3 mph62%29.68 "HgN/A
12:00 PM71 °FMild.7 mph71%29.70 "HgN/A
11:00 AM71 °FMild.2 mph76%29.66 "HgN/A
10:00 AM69 °FMild.5 mph82%29.62 "HgN/A
9:00 AM68 °FMild.2 mph84%29.65 "HgN/A
Weather by CustomWeather, © 2015

See weather overviewHow to use our weather pages